Ireland West Airport Knock, Ireland

6:07 AM GMT on March 23, 2017 (GMT +0000)
Connaught

Weather History for EIKN - October, 2013

Change the Weather History Date:

Tuesday, October 15, 2013

  Actual Average Record
Temperature  
Mean Temperature 48 °F -  
Max Temperature 55 °F - - ()
Min Temperature 41 °F - - ()
Degree Days  
Heating Degree Days 17    
Moisture  
Dew Point 44 °F    
Average Humidity 83    
Maximum Humidity 100    
Minimum Humidity 67    
Precipitation  
Precipitation 0.00 in - - ()
Sea Level Pressure  
Sea Level Pressure 29.85 in    
Wind  
Wind Speed 9 mph ()    
Max Wind Speed 14 mph    
Max Gust Speed -    
Visibility 4.9 miles    
Events Fog    
T = Trace of Precipitation, MM = Missing Value Source: Averaged Metar Reports

Daily Weather History Graph

Daily Weather History Graph

Search for Another Location

Airport or City:

Trip Planner

Search our weather history database for the weather conditions in past years. The results will help you decide how hot, cold, wet, or windy it might be!

Date:

Astronomy

Oct. 15, 2013 Rise Set
Actual Time 8:03 AM IST 6:37 PM IST
Civil Twilight 7:27 AM IST 7:13 PM IST
Nautical Twilight 6:46 AM IST 7:54 PM IST
Astronomical Twilight 6:05 AM IST 8:35 PM IST
Moon 5:00 PM IST (10/15) 3:40 AM IST (10/15)
Length of Visible Light 11h 46m
Length of Day
10h 34m
Waxing Gibbous, 86% of the Moon is Illuminated
Oct 15
Waxing Gibbous
Oct 19
Full
Oct 27
Last Quarter
Nov 3
New
Nov 10
First Quarter

Hourly Weather History & Observations

Time (IST) Temp. Windchill Dew Point Humidity Pressure Visibility Wind Dir Wind Speed Gust Speed Precip Events Conditions
1:00 AM 44 °F - 41 °F 84% 29.92 in - East 6.7 mph - -  
7:00 AM 43 °F - 43 °F 98% 29.86 in 3 mi East 11.2 mph - - Fog Light Fog
7:00 AM 42.8 °F 37.0 °F 42.8 °F 100% 29.83 in 2.8 mi East 10.4 mph - N/A   Partly Cloudy
7:30 AM 42.8 °F 37.5 °F 41.0 °F 93% 29.83 in 1.5 mi ESE 9.2 mph - N/A Fog Fog
8:00 AM 41.0 °F 34.7 °F 41.0 °F 100% 29.83 in 0.2 mi East 10.4 mph - N/A Fog Fog
8:30 AM 41.0 °F 35.2 °F 41.0 °F 100% 29.86 in 4.3 mi East 9.2 mph - N/A   Partly Cloudy
9:00 AM 42.8 °F 37.0 °F 41.0 °F 93% 29.86 in 5.0 mi East 10.4 mph - N/A   Partly Cloudy
9:30 AM 42.8 °F 37.5 °F 42.8 °F 100% 29.86 in 5.0 mi ESE 9.2 mph - N/A   Partly Cloudy
10:00 AM 44.6 °F 39.2 °F 42.8 °F 93% 29.86 in 5.0 mi ESE 10.4 mph - N/A   Partly Cloudy
10:30 AM 44.6 °F 39.7 °F 42.8 °F 93% 29.86 in 1.1 mi SE 9.2 mph - N/A Fog Fog
11:00 AM 46.4 °F 41.9 °F 44.6 °F 93% 29.86 in 3.7 mi SE 9.2 mph - N/A   Partly Cloudy
11:30 AM 48.2 °F - 44.6 °F 87% 29.86 in 6.2 mi ESE 9.2 mph - N/A   Partly Cloudy
12:00 PM 50.0 °F - 46.4 °F 87% 29.86 in 6.2 mi SE 10.4 mph - N/A   Scattered Clouds
12:30 PM 50.0 °F - 44.6 °F 82% 29.86 in 6.2 mi ESE 12.7 mph - N/A   Scattered Clouds
1:00 PM 53 °F - 45 °F 67% 29.88 in 22 mi SE 13.4 mph - -   Partly Cloudy
1:00 PM 53.6 °F - 44.6 °F 72% 29.86 in 6.2 mi SE 12.7 mph - N/A   Partly Cloudy
1:30 PM 51.8 °F - 44.6 °F 76% 29.86 in 6.2 mi SE 13.8 mph - N/A   Partly Cloudy
2:00 PM 53.6 °F - 42.8 °F 67% 29.86 in 6.2 mi ESE 12.7 mph - N/A   Partly Cloudy
2:30 PM 53.6 °F - 44.6 °F 72% 29.86 in 6.2 mi ESE 11.5 mph - N/A   Partly Cloudy
3:00 PM 53.6 °F - 44.6 °F 72% 29.86 in 6.2 mi ESE 12.7 mph - N/A   Scattered Clouds
3:30 PM 55.4 °F - 44.6 °F 67% 29.83 in 6.2 mi ESE 12.7 mph - N/A   Scattered Clouds
4:00 PM 55.4 °F - 44.6 °F 67% 29.83 in 6.2 mi SE 11.5 mph - N/A   Partly Cloudy
4:30 PM 53.6 °F - 44.6 °F 72% 29.83 in 6.2 mi ESE 12.7 mph - N/A   Scattered Clouds
5:00 PM 53.6 °F - 44.6 °F 72% 29.83 in 6.2 mi ESE 11.5 mph - N/A   Scattered Clouds
5:30 PM 51.8 °F - 44.6 °F 76% 29.83 in 6.2 mi SE 11.5 mph - N/A   Scattered Clouds
6:00 PM 50.0 °F - 44.6 °F 82% 29.83 in 6.2 mi SE 11.5 mph - N/A   Scattered Clouds
7:00 PM 48 °F - 44 °F 83% 29.85 in 25 mi ESE 11.2 mph - -   Scattered Clouds